Regional Weather Roundup
Issued by NWS Goodland, KS

Home | Current Version | Previous Version | Graphics & Text | Print | Product List | Glossary On
Versions: 1 2 3 4 5 6 7 8 9 10 11 12 13 14 15 16 17 18 19 20 21 22 23 24 25 26 27 28 29 30 31 32 33 34 35 36 37 38 39 40 41 42 43 44 45 46 47 48 49 50
000
ASUS43 KGLD 041359
RWRGLD

GOODLAND FORECAST AREA HOURLY WEATHER ROUNDUP
NATIONAL WEATHER SERVICE GOODLAND KS
700 AM MST WED MAR 04 2015

...OFFICIAL OBSERVATIONS...

CITY           SKY/WX    TMP DP  RH WIND       PRES   REMARKS
GOODLAND KS    CLOUDY    15  11  83 N8        30.17R
HILL CITY KS   CLOUDY    18  12  77 N9        30.27R
IMPERIAL NEB     N/A     13   7  77 NW7       30.21R
MCCOOK NEB     CLOUDY    16  11  80 NW7       30.24R
AKRON CO       CLOUDY    10   8  92 NW8       30.13R
BURLINGTON CO  LGT SNOW  15  10  80 N8        30.15R
LIMON CO       LGT SNOW   9   6  88 N13       30.09R FOG     WCI  -7
$$

...UNOFFICIAL OBSERVATIONS...

CITY           SKY/WX    TMP DP  RH WIND       PRES   REMARKS
LENORA KS        N/A     15  32 100 S6          N/A
NORTON KS      PTCLDY    10   7  85 NW8       30.24R
YUMA CO          N/A     12   7  81 CALM        N/A
$$



USA.gov is the U.S. government's official web portal to all federal, state and local government web resources and services.